Hyannis, MA

4:02 AM EDT on July 22, 2017 (GMT -0400)
Barnstable Municipal-Boardman-Polando Field

Weather History for KHYA - May, 2013

Change the Weather History Date:

Sunday, May 19, 2013

  Actual Average Record
Temperature  
Mean Temperature 57 °F -  
Max Temperature 66 °F 64 °F 85 °F (1977)
Min Temperature 48 °F 47 °F 29 °F (1956)
Degree Days  
Heating Degree Days 8    
Growing Degree Days 7 (Base 50)    
Moisture  
Dew Point 50 °F    
Average Humidity 76    
Maximum Humidity 100    
Minimum Humidity 50    
Precipitation  
Precipitation 0.08 in - - ()
Sea Level Pressure  
Sea Level Pressure 30.31 in    
Wind  
Wind Speed 6 mph (SSW)    
Max Wind Speed 14 mph    
Max Gust Speed 21 mph    
Visibility 9 miles    
Events Rain    
Averages and records for this station are not official NWS values.
T = Trace of Precipitation, MM = Missing Value Source: NWS Daily Summary

Daily Weather History Graph

Daily Weather History Graph

Search for Another Location

Airport or City:

Trip Planner

Search our weather history database for the weather conditions in past years. The results will help you decide how hot, cold, wet, or windy it might be!

Date:

Astronomy

May. 19, 2013 Rise Set
Actual Time 5:17 AM EDT 7:58 PM EDT
Civil Twilight 4:45 AM EDT 8:30 PM EDT
Nautical Twilight 4:05 AM EDT 9:10 PM EDT
Astronomical Twilight 3:19 AM EDT 9:56 PM EDT
Moon 1:54 PM EDT (5/19) 1:44 AM EDT (5/19)
Length of Visible Light 15h 44m
Length of Day
14h 40m
Waxing Gibbous, 65% of the Moon is Illuminated
May 19
Waxing Gibbous
May 25
Full
May 31
Last Quarter
Jun 8
New
Jun 16
First Quarter

Hourly Weather History & Observations

Time (EDT) Temp. Dew Point Humidity Pressure Visibility Wind Dir Wind Speed Gust Speed Precip Events Conditions
12:56 AM 54.0 °F 51.1 °F 90% 30.30 in 10.0 mi WSW 6.9 mph - N/A   Clear
1:56 AM 51.1 °F 48.9 °F 92% 30.31 in 10.0 mi South 3.5 mph - N/A   Clear
2:56 AM 52.0 °F 48.9 °F 89% 30.31 in 10.0 mi Calm Calm - N/A   Partly Cloudy
3:56 AM 48.9 °F 46.0 °F 90% 30.31 in 10.0 mi Calm Calm - N/A   Clear
4:56 AM 48.0 °F 46.0 °F 93% 30.32 in 10.0 mi Calm Calm - N/A   Overcast
5:56 AM 50.0 °F 46.9 °F 89% 30.33 in 10.0 mi Calm Calm - N/A   Clear
6:56 AM 57.0 °F 51.1 °F 81% 30.34 in 10.0 mi SW 4.6 mph - N/A   Clear
7:56 AM 61.0 °F 46.9 °F 60% 30.35 in 10.0 mi SW 11.5 mph - N/A   Clear
8:56 AM 63.0 °F 48.0 °F 58% 30.35 in 10.0 mi SSW 10.4 mph - N/A   Clear
9:56 AM 64.0 °F 46.9 °F 54% 30.35 in 10.0 mi SSW 9.2 mph - N/A   Clear
10:56 AM 64.9 °F 48.0 °F 54% 30.35 in 10.0 mi SSW 11.5 mph - N/A   Clear
11:56 AM 66.0 °F 46.9 °F 50% 30.35 in 10.0 mi South 12.7 mph - N/A   Clear
12:56 PM 66.0 °F 48.0 °F 52% 30.34 in 10.0 mi SSW 11.5 mph - N/A   Clear
2:56 PM 64.9 °F 50.0 °F 58% 30.31 in 10.0 mi SSW 12.7 mph 18.4 mph N/A   Clear
3:56 PM 64.9 °F 46.0 °F 50% 30.31 in 10.0 mi SSW 12.7 mph 20.7 mph N/A   Clear
4:56 PM 62.1 °F 48.9 °F 62% 30.30 in 10.0 mi SSW 9.2 mph 17.3 mph N/A   Clear
5:56 PM 61.0 °F 48.0 °F 62% 30.30 in 10.0 mi SSW 10.4 mph - N/A   Clear
6:56 PM 59.0 °F 50.0 °F 72% 30.30 in 10.0 mi SSW 8.1 mph - N/A   Partly Cloudy
7:56 PM 57.9 °F 50.0 °F 75% 30.30 in 10.0 mi SSW 13.8 mph - N/A   Overcast
8:56 PM 57.0 °F 53.1 °F 87% 30.30 in 9.0 mi SSW 10.4 mph - 0.00 in Rain Light Rain
9:56 PM 55.9 °F 54.0 °F 93% 30.29 in 8.0 mi South 6.9 mph - 0.02 in Rain Light Rain
10:56 PM 55.9 °F 54.0 °F 93% 30.27 in 6.0 mi South 6.9 mph - 0.04 in Rain Light Rain
11:13 PM 55.4 °F 55.4 °F 100% 30.27 in 4.0 mi South 3.5 mph - 0.01 in Rain Light Rain
11:18 PM 55.4 °F 55.4 °F 100% 30.27 in 4.0 mi Variable 5.8 mph - 0.01 in Rain Light Rain
11:56 PM 57.0 °F 55.0 °F 93% 30.25 in 5.0 mi Variable 5.8 mph - 0.02 in Rain Light Rain